Probability
0 0 0 0 0 0 0 0 0 3 9 16 22 23 22 22 22 21 21 23 34 47 53 55 55 56 59 63 66 67 66 64 62 58 54 51 49 48 46 44 40 35 27 19
0 0 0 0 0 0 1 1 1 5 12 19 24 26 27 26 24 21 21 25 35 48 56 58 58 58 61 64 65 65 64 62 59 56 53 49 47 46 46 42 37 33 26 20
0 0 1 1 0 1 2 3 5 10 16 22 27 29 29 28 25 22 23 28 37 48 57 60 60 61 63 64 63 61 59 56 53 51 50 48 45 45 43 38 33 30 26 23
0 0 0 1 1 2 3 5 8 14 20 24 26 26 25 26 25 25 28 33 38 45 51 57 60 62 63 62 59 56 53 50 46 45 46 46 45 44 40 34 31 30 28 25
1 0 0 1 2 3 5 7 11 16 20 22 21 21 23 26 28 31 35 39 41 42 47 53 58 60 61 60 56 52 48 44 41 41 43 43 42 40 37 34 31 29 26 24
2 1 1 1 1 2 5 11 17 21 22 21 20 21 27 30 33 39 44 45 45 45 49 53 56 57 57 55 54 51 47 43 40 39 39 37 37 36 35 34 31 28 24 21
2 2 4 6 6 10 18 26 31 32 32 30 29 29 31 33 39 46 48 47 48 50 53 54 53 52 51 49 48 48 45 42 39 37 33 32 33 34 33 32 30 27 24 21
7 8 13 18 21 29 42 48 45 41 39 39 39 34 32 35 42 47 46 45 47 51 53 52 50 47 44 42 42 42 41 38 36 32 27 26 29 30 29 28 27 26 24 22
19 19 23 28 33 41 50 53 49 41 38 40 40 36 35 39 44 45 43 43 45 47 49 49 46 42 40 39 38 38 36 32 29 25 21 20 22 23 23 23 24 23 22 20
27 26 25 26 29 33 37 40 38 33 32 35 37 37 39 43 45 44 43 42 42 43 45 45 42 40 39 38 35 33 30 26 22 18 16 15 16 16 17 18 20 19 18 16
28 27 25 23 23 25 28 31 29 27 29 32 34 37 39 41 43 44 42 40 39 40 41 41 40 40 39 35 32 28 25 22 17 13 12 11 12 11 11 12 13 12 11 11
29 29 28 25 24 25 26 27 25 26 29 31 32 35 37 38 40 41 40 37 36 34 34 36 38 40 36 31 29 27 25 22 16 12 10 9 9 8 6 6 5 4 4 5
28 30 29 27 26 26 25 24 22 25 28 30 31 32 35 37 37 35 34 33 31 29 29 30 34 36 34 29 28 26 24 21 15 11 9 9 8 7 5 4 2 1 1 1
24 26 26 24 25 26 24 21 20 22 26 27 28 29 31 33 31 28 28 28 27 25 25 26 28 30 30 28 26 24 20 16 12 9 8 8 8 7 6 5 5 3 1 0
17 19 19 20 23 23 22 20 19 19 21 22 24 26 27 27 26 23 23 25 25 22 21 22 22 23 24 24 23 20 15 11 8 7 7 7 7 7 7 7 6 4 2 0
14 15 17 18 19 19 18 18 17 16 16 18 22 26 26 24 24 23 23 24 24 22 21 20 19 18 17 16 16 15 12 8 7 7 7 7 7 7 8 8 7 5 2 1
15 15 16 16 16 15 15 15 15 15 15 17 21 26 27 25 25 25 24 25 24 23 21 19 16 14 13 11 10 9 7 6 6 8 9 9 9 9 8 8 6 4 2 1
13 13 14 14 13 13 14 13 13 14 16 17 19 23 25 25 24 24 24 24 24 23 20 15 13 11 10 10 10 7 6 5 6 9 10 10 9 8 8 6 5 3 1 0
10 10 12 12 12 13 13 12 11 12 15 17 17 19 21 22 23 22 22 22 22 20 16 12 10 10 10 11 10 9 6 4 4 7 8 7 6 6 6 5 4 2 1 0
8 9 9 10 12 12 12 11 10 12 14 16 17 17 18 20 21 21 21 21 20 16 13 10 9 9 9 10 9 8 6 5 4 5 5 4 3 4 4 3 2 1 0 0
7 8 8 8 10 11 9 8 9 11 13 15 17 17 16 17 18 19 19 19 16 11 8 8 8 7 7 7 6 6 6 6 5 5 4 2 2 2 2 1 1 0 0 0
7 7 7 8 10 11 9 7 8 10 13 15 16 17 16 16 15 15 15 15 11 6 4 5 5 4 3 4 5 5 6 5 5 3 2 1 1 1 1 0 0 0 0 0
8 8 8 9 10 12 12 9 9 10 13 15 16 16 16 16 15 14 13 11 7 3 3 3 2 1 1 2 3 4 4 3 2 1 1 0 0 1 1 0 0 1 1 1
9 9 9 9 9 11 13 11 10 11 14 15 16 16 16 16 16 14 12 8 3 1 2 2 1 0 1 2 3 3 2 1 0 0 0 0 0 1 1 0 0 1 2 2
9 9 10 9 9 10 11 10 10 12 14 14 14 14 15 16 16 14 10 5 2 0 1 1 1 1 2 3 3 2 1 0 0 0 0 0 1 1 1 0 0 0 2 3
7 8 9 9 9 9 9 9 9 10 12 12 11 11 13 14 13 11 7 4 1 0 0 0 1 2 2 2 2 1 0 0 0 0 0 1 1 1 1 1 0 1 2 3
5 7 8 7 8 9 8 8 8 9 10 11 10 10 12 13 11 8 5 2 1 0 0 0 1 1 1 1 1 0 0 0 0 0 0 1 1 1 1 1 1 2 3 5
Wind_Speed
11 9 9 11 14 14 12 10 7 5 8 8 6 5 5 5 7 6 6 5 5 5 4 4 4 4 5 5 5 5 5 5 4 4 4 4 3 3 3 3 3 2 2 2
10 9 10 11 13 14 13 11 8 7 5 9 8 7 5 5 6 5 5 5 5 5 5 5 4 4 5 6 5 5 5 5 5 4 4 4 4 3 3 3 3 3 3 3
9 10 11 13 11 11 10 9 7 6 5 8 8 6 5 4 4 5 4 5 5 5 5 4 4 4 5 6 6 6 6 5 5 4 4 4 4 4 3 3 3 3 3 4
8 7 12 9 9 10 9 6 4 4 5 5 7 6 5 4 3 3 4 4 5 5 5 5 5 5 5 6 6 6 6 5 5 4 3 4 4 3 3 3 3 3 3 3
7 9 9 8 8 8 7 5 5 5 7 5 6 7 5 4 3 4 5 5 5 5 6 5 5 5 5 5 5 5 5 5 5 4 4 4 3 3 2 3 3 3 3 4
8 9 9 5 3 2 4 5 3 5 7 6 5 4 3 4 5 4 7 6 5 5 6 5 5 5 5 5 4 4 4 4 4 4 4 4 3 3 2 2 3 4 4 4
10 8 4 4 3 3 6 3 3 5 6 6 5 5 5 5 6 6 7 7 6 6 6 5 5 4 4 5 4 3 4 4 4 4 4 4 3 2 3 3 4 4 4 4
10 10 3 4 3 1 4 5 6 7 6 7 8 8 7 6 6 5 6 6 6 5 6 6 5 4 4 5 4 4 5 5 5 4 3 4 3 2 3 3 4 4 4 4
1 1 4 3 3 3 3 5 6 6 6 7 8 7 7 7 6 6 6 6 5 5 7 6 5 4 5 5 5 5 5 5 4 4 4 3 3 2 2 1 2 3 3 3
3 4 4 4 3 2 3 5 5 5 5 7 7 7 6 5 6 6 6 5 5 5 6 5 4 4 4 4 4 5 5 4 4 4 5 5 4 3 3 2 2 2 3 3
3 3 2 2 2 2 4 5 4 5 6 6 6 6 5 5 5 5 5 4 4 5 5 5 5 4 4 4 3 4 4 4 4 4 5 5 6 6 5 5 3 3 3 3
1 1 1 3 2 2 3 4 4 4 5 5 5 5 5 5 5 5 5 4 4 5 5 5 4 4 4 3 3 3 3 3 3 3 4 4 5 6 11 9 10 10 9 6
2 2 2 3 3 3 3 3 2 2 4 4 4 4 4 5 5 5 5 4 4 4 5 4 4 4 4 3 3 3 3 3 3 3 4 4 4 4 5 6 9 10 9 8
4 2 1 2 2 3 2 2 2 3 3 3 4 4 4 5 5 4 4 4 5 5 5 4 4 4 3 3 3 3 3 3 3 2 3 3 3 3 3 4 4 4 5 5
2 2 1 1 1 2 1 1 1 2 2 3 3 4 4 4 4 4 4 4 5 5 4 4 4 3 3 3 3 3 3 3 2 2 2 3 3 4 4 4 4 4 4 3
2 2 2 2 2 1 0 1 2 2 2 2 3 4 5 4 4 5 4 4 5 4 4 4 4 3 3 3 3 3 3 3 2 2 2 3 3 3 4 4 4 4 3 3
3 3 3 3 2 1 1 1 2 2 2 2 3 5 5 5 5 5 4 4 4 3 4 3 3 3 3 3 3 3 3 3 3 3 3 3 3 3 3 3 3 4 3 4
3 3 3 2 2 2 1 0 1 2 3 4 4 4 4 4 4 4 4 4 4 4 3 3 3 3 3 3 2 2 3 3 3 3 3 3 3 3 3 3 4 4 4 4
3 3 3 3 2 2 2 2 1 1 3 3 3 3 3 3 3 3 4 4 4 3 3 3 3 3 3 2 2 2 3 4 4 3 3 4 4 3 3 3 3 4 3 3
2 3 3 4 4 3 3 3 3 2 3 3 3 3 3 3 3 4 4 3 2 2 3 3 4 3 3 2 1 2 3 4 4 4 4 4 4 4 3 3 3 3 3 3
2 3 3 3 3 3 3 4 4 3 3 4 3 4 4 3 3 3 3 3 2 2 3 4 3 2 2 2 2 2 3 3 4 4 4 4 4 3 3 3 3 3 3 2
2 2 2 2 2 2 2 3 3 4 4 4 4 5 4 4 4 3 3 2 2 3 3 3 2 2 1 1 3 2 3 3 3 3 3 3 3 3 3 3 2 3 2 2
1 2 2 2 2 2 2 2 2 3 3 4 4 4 4 3 3 3 3 2 3 3 2 2 2 4 2 2 2 3 2 2 3 3 3 3 3 3 3 3 2 3 3 2
2 2 2 2 2 2 2 2 2 2 3 4 4 5 4 3 3 3 3 5 5 5 3 3 5 5 3 2 2 3 3 3 3 2 3 3 2 2 2 2 2 3 3 3
2 3 3 3 3 3 3 3 3 3 3 3 4 4 3 3 3 3 4 6 6 5 4 5 6 5 4 2 3 3 3 2 2 2 2 2 2 2 2 3 3 2 2 2
2 2 3 3 2 2 2 2 2 3 3 4 3 3 3 3 4 4 4 5 6 4 3 4 4 4 3 3 3 3 3 3 3 2 2 2 2 2 2 2 3 2 2 3
3 3 3 3 3 3 2 2 2 2 2 3 3 3 3 3 3 4 5 4 4 4 3 3 3 3 3 3 3 3 3 3 3 2 2 2 2 2 2 3 3 3 2 3
Wind_Direction
257 268 238 218 221 222 226 235 234 195 179 175 149 141 134 139 126 117 114 113 110 100 94 96 94 106 118 122 123 136 139 134 129 129 130 127 123 119 112 111 108 94 92 86
245 256 259 239 227 219 221 227 220 204 183 147 143 141 143 133 125 123 124 122 116 110 104 100 99 107 113 116 120 123 122 122 118 123 128 127 123 117 113 107 101 95 88 76
243 236 244 239 227 224 220 226 227 209 172 145 141 133 129 123 121 126 125 120 117 115 110 107 105 98 109 112 114 113 114 118 120 125 128 127 121 115 112 111 105 93 86 85
239 235 237 240 235 234 222 211 204 163 143 138 130 123 110 110 111 106 110 110 114 118 113 112 112 106 109 117 116 118 121 125 127 130 127 118 114 111 111 110 106 99 93 90
234 227 237 231 219 219 214 208 201 171 151 150 143 126 101 83 92 95 95 88 101 116 117 111 110 111 112 114 118 124 127 127 129 129 126 119 116 120 116 114 110 103 96 91
237 233 231 235 246 238 202 198 191 160 150 154 151 138 103 76 80 84 89 85 87 93 98 100 105 110 115 118 117 117 118 117 111 108 115 115 115 111 110 117 118 115 103 98
240 237 233 280 276 229 211 159 93 100 111 112 99 93 113 93 75 77 90 92 88 88 94 93 95 103 109 103 98 102 105 101 102 100 105 110 109 113 119 117 118 118 113 105
232 238 218 333 300 5 68 67 88 93 89 89 95 111 107 90 80 82 88 92 96 97 94 92 94 107 106 97 92 93 95 94 93 94 101 105 107 109 119 129 131 131 129 121
258 129 95 63 61 60 75 80 83 92 93 96 103 101 93 86 84 80 83 89 95 98 97 91 85 89 97 93 95 98 98 96 95 91 81 84 97 105 109 116 130 127 123 117
131 128 118 81 57 50 81 92 95 95 93 99 98 96 88 88 93 88 84 85 92 98 103 97 88 83 84 89 99 107 107 105 103 98 88 67 56 59 56 36 56 87 96 99
141 146 151 137 114 60 66 77 97 99 98 102 100 100 100 95 100 100 102 101 100 99 97 94 91 84 80 82 92 107 112 112 106 99 99 86 68 46 52 50 46 56 56 73
50 104 198 140 118 82 77 80 78 85 85 86 88 90 98 102 105 102 98 97 100 101 99 97 96 92 82 81 95 106 121 124 118 114 107 107 105 80 53 60 64 66 67 79
42 26 65 69 66 70 82 86 84 91 94 94 92 92 95 101 107 112 116 119 116 109 104 102 99 93 91 90 95 94 97 100 106 112 115 115 115 114 103 73 64 61 61 69
40 17 55 53 53 48 51 61 84 95 89 94 102 101 95 101 107 112 122 123 119 112 106 104 101 97 100 101 97 95 96 86 90 106 114 118 120 125 128 122 106 85 65 67
297 282 224 153 88 64 37 127 130 111 101 102 110 111 111 109 110 109 107 113 114 115 115 115 112 105 102 109 107 104 103 102 97 100 104 109 120 122 114 108 106 108 107 86
243 238 202 171 134 128 304 213 172 152 142 136 128 120 114 109 107 109 108 112 119 121 121 119 118 115 119 124 122 116 106 110 126 129 125 121 119 119 113 107 103 102 105 102
222 217 198 180 177 204 261 263 191 155 154 141 129 123 121 121 119 116 113 111 115 111 111 120 127 134 140 143 145 139 136 141 154 147 132 122 113 109 109 110 110 106 99 99
223 215 198 194 179 172 193 238 223 143 144 135 127 126 128 128 130 126 127 127 118 114 117 125 131 146 149 147 142 146 145 145 142 137 128 119 113 113 114 110 107 106 109 111
186 181 186 188 185 173 174 184 183 131 112 112 119 123 121 129 132 130 130 128 126 131 130 128 150 164 144 134 146 148 152 147 143 137 127 125 127 123 118 113 110 110 115 118
156 160 169 181 183 177 177 179 167 152 142 139 138 141 139 140 136 130 132 128 126 131 144 147 162 155 150 147 170 149 135 138 141 138 137 140 131 127 128 127 120 115 115 120
146 156 165 165 155 170 179 175 165 164 163 160 161 159 149 138 130 129 136 130 112 121 144 154 168 159 156 166 185 146 135 135 137 135 134 129 125 128 132 128 125 122 122 122
151 153 159 154 149 157 155 156 163 168 164 157 158 157 152 149 148 139 131 131 133 141 160 160 156 124 116 175 150 141 148 147 137 134 133 129 130 135 129 125 124 123 120 114
139 146 151 149 135 125 130 143 157 162 156 154 157 156 156 154 160 157 149 140 140 141 148 134 116 114 118 177 149 138 137 135 130 131 131 132 134 138 140 142 137 125 121 123
154 159 162 158 155 150 146 149 156 159 161 159 163 164 164 165 163 153 140 135 134 145 142 125 135 142 173 185 154 143 144 148 147 146 142 143 150 151 149 146 136 123 122 124
159 163 164 170 173 169 164 164 161 167 179 170 167 168 173 167 152 134 130 132 139 151 140 139 154 167 178 170 162 152 139 126 130 136 139 144 144 136 128 122 117 115 117 115
173 170 160 172 170 175 180 175 169 169 174 165 163 162 150 134 132 140 146 147 148 153 149 148 157 171 183 169 148 136 135 131 129 134 126 127 133 133 130 129 126 120 111 104
162 160 164 171 177 184 181 176 172 175 170 155 139 120 111 122 135 146 148 148 152 152 147 146 153 164 169 144 131 130 124 121 124 130 140 143 132 128 127 124 116 110 108 111